When you browse on this site, cookies collect data to enhance your experience and personalize the content and advertising you see.
Visit our Privacy Policy to learn more. By continuing to use the site, you agree to this use of cookies and data.
  • en France
  • Liste des pays
  • À 7 jours
  • Température de l'eau
  • Carte satellitaire
  • Carte météo
  • Widgets météo
  • user-avatar
    Se connecter

    Météo par heure à Abbévillers

    Ce jour, 17 Février, Dimanche

    Heure Température Précipitation Vent Pression Humidité
    00:00 +6°C° 0 mm 2 m/s 719 mmHg 65%
    01:00 +5°C° 0 mm 2 m/s 719 mmHg 64%
    02:00 +5°C° 0 mm 2 m/s 719 mmHg 63%
    03:00 +6°C° 0 mm 1 m/s 719 mmHg 62%
    04:00 +4°C° 0 mm 2 m/s 719 mmHg 62%
    05:00 +4°C° 0 mm 2 m/s 719 mmHg 61%
    06:00 +4°C° 0 mm 2 m/s 719 mmHg 61%
    07:00 +6°C° 0 mm 1 m/s 719 mmHg 59%
    08:00 +8°C° 0 mm 1 m/s 719 mmHg 57%
    09:00 +9°C° 0 mm 1 m/s 719 mmHg 55%
    10:00 +11°C° 0 mm 1 m/s 719 mmHg 50%
    11:00 +13°C° 0 mm 1 m/s 718 mmHg 46%
    12:00 +15°C° 0 mm 1 m/s 718 mmHg 41%
    13:00 +15°C° 0 mm 1 m/s 718 mmHg 44%
    14:00 +14°C° 0 mm 0 m/s 718 mmHg 47%
    15:00 +14°C° 0 mm 0 m/s 718 mmHg 49%
    16:00 +12°C° 0 mm 0 m/s 717 mmHg 53%
    17:00 +10°C° 0 mm 0 m/s 717 mmHg 57%
    18:00 +9°C° 0 mm 1 m/s 717 mmHg 61%
    19:00 +8°C° 0 mm 1 m/s 717 mmHg 62%
    20:00 +7°C° 0 mm 1 m/s 717 mmHg 63%
    21:00 +7°C° 0 mm 1 m/s 717 mmHg 65%
    22:00 +7°C° 0 mm 1 m/s 717 mmHg 65%
    23:00 +6°C° 0 mm 1 m/s 717 mmHg 66%

    Demain, 18 Février, Lundi

    Heure Température Précipitation Vent Pression Humidité
    00:00 +6°C° 0 mm 1 m/s 717 mmHg 67%
    01:00 +5°C° 0 mm 1 m/s 717 mmHg 68%
    02:00 +5°C° 0 mm 1 m/s 717 mmHg 69%
    03:00 +5°C° 0 mm 1 m/s 717 mmHg 70%
    04:00 +4°C° 0 mm 1 m/s 716 mmHg 70%
    05:00 +4°C° 0 mm 1 m/s 716 mmHg 71%
    06:00 +4°C° 0 mm 1 m/s 716 mmHg 71%
    07:00 +5°C° 0 mm 1 m/s 716 mmHg 67%
    08:00 +7°C° 0 mm 1 m/s 716 mmHg 63%
    09:00 +8°C° 0 mm 1 m/s 716 mmHg 60%
    10:00 +10°C° 0 mm 1 m/s 716 mmHg 55%
    11:00 +12°C° 0 mm 1 m/s 716 mmHg 50%
    12:00 +13°C° 0 mm 1 m/s 716 mmHg 44%
    13:00 +13°C° 0 mm 1 m/s 716 mmHg 46%
    14:00 +13°C° 0 mm 1 m/s 715 mmHg 48%
    15:00 +13°C° 0 mm 1 m/s 715 mmHg 49%
    16:00 +11°C° 0 mm 1 m/s 715 mmHg 56%
    17:00 +9°C° 0 mm 1 m/s 715 mmHg 63%
    18:00 +7°C° 0 mm 1 m/s 715 mmHg 69%
    19:00 +7°C° 0 mm 1 m/s 716 mmHg 71%
    20:00 +6°C° 0 mm 1 m/s 716 mmHg 73%
    21:00 +6°C° 0 mm 1 m/s 716 mmHg 75%
    22:00 +5°C° 0 mm 1 m/s 716 mmHg 74%
    23:00 +5°C° 0 mm 1 m/s 716 mmHg 74%

    Après-demain, 19 Février, Mardi

    Heure Température Précipitation Vent Pression Humidité
    00:00 +3°C° 0 mm 2 m/s 716 mmHg 74%
    01:00 +4°C° 0 mm 1 m/s 716 mmHg 75%
    02:00 +4°C° 0 mm 1 m/s 716 mmHg 76%
    03:00 +4°C° 0 mm 1 m/s 716 mmHg 77%
    04:00 +3°C° 0 mm 1 m/s 716 mmHg 78%
    05:00 +3°C° 0 mm 1 m/s 716 mmHg 80%
    06:00 +3°C° 0 mm 1 m/s 716 mmHg 81%
    07:00 +5°C° 0 mm 1 m/s 717 mmHg 77%
    08:00 +6°C° 0 mm 1 m/s 717 mmHg 73%
    09:00 +7°C° 0 mm 1 m/s 717 mmHg 69%
    10:00 +8°C° 0 mm 2 m/s 717 mmHg 68%
    11:00 +9°C° 0 mm 2 m/s 717 mmHg 66%
    12:00 +10°C° 0 mm 2 m/s 717 mmHg 65%
    13:00 +10°C° 0 mm 2 m/s 717 mmHg 66%
    14:00 +10°C° 0 mm 2 m/s 717 mmHg 67%
    15:00 +11°C° 0 mm 1 m/s 717 mmHg 68%
    16:00 +10°C° 0 mm 1 m/s 717 mmHg 76%
    17:00 +8°C° 0 mm 1 m/s 717 mmHg 83%
    18:00 +5°C° 0 mm 0 m/s 717 mmHg 91%
    19:00 +5°C° 0 mm 0 m/s 717 mmHg 91%
    20:00 +5°C° 0 mm 0 m/s 717 mmHg 92%
    21:00 +5°C° 0 mm 1 m/s 717 mmHg 93%
    22:00 +5°C° 0 mm 1 m/s 717 mmHg 92%
    23:00 +5°C° 0 mm 1 m/s 717 mmHg 92%

    20 Février, Mercredi

    Heure Température Précipitation Vent Pression Humidité
    00:00 +5°C° 0 mm 1 m/s 717 mmHg 91%
    01:00 +4°C° 0 mm 1 m/s 717 mmHg 90%
    02:00 +4°C° 0 mm 1 m/s 717 mmHg 90%
    03:00 +4°C° 0 mm 1 m/s 717 mmHg 89%
    04:00 +4°C° 0 mm 1 m/s 717 mmHg 88%
    05:00 +3°C° 0 mm 1 m/s 718 mmHg 88%
    06:00 +3°C° 0 mm 1 m/s 718 mmHg 87%
    07:00 +5°C° 0 mm 1 m/s 718 mmHg 81%
    08:00 +6°C° 0 mm 1 m/s 719 mmHg 74%
    09:00 +7°C° 0 mm 0 m/s 719 mmHg 68%
    10:00 +9°C° 0 mm 0 m/s 719 mmHg 64%
    11:00 +10°C° 0 mm 0 m/s 719 mmHg 60%
    12:00 +12°C° 0 mm 0 m/s 719 mmHg 56%
    13:00 +11°C° 0 mm 0 m/s 719 mmHg 58%
    14:00 +12°C° 0 mm 1 m/s 719 mmHg 59%
    15:00 +12°C° 0 mm 1 m/s 719 mmHg 61%
    16:00 +10°C° 0 mm 1 m/s 719 mmHg 69%
    17:00 +8°C° 0 mm 0 m/s 719 mmHg 77%
    18:00 +6°C° 0 mm 0 m/s 719 mmHg 85%
    19:00 +5°C° 0 mm 0 m/s 720 mmHg 86%
    20:00 +5°C° 0 mm 0 m/s 720 mmHg 87%
    21:00 +5°C° 0 mm 0 m/s 720 mmHg 88%
    22:00 +5°C° 0 mm 1 m/s 720 mmHg 88%
    23:00 +5°C° 0 mm 1 m/s 720 mmHg 88%

    21 Février, Jeudi

    Heure Température Précipitation Vent Pression Humidité
    00:00 +5°C° 0 mm 1 m/s 720 mmHg 88%
    01:00 +5°C° 0 mm 1 m/s 720 mmHg 87%
    02:00 +5°C° 0 mm 1 m/s 720 mmHg 87%
    03:00 +4°C° 0 mm 1 m/s 720 mmHg 87%
    04:00 +4°C° 0 mm 1 m/s 720 mmHg 86%
    05:00 +4°C° 0 mm 1 m/s 721 mmHg 86%
    06:00 +4°C° 0 mm 1 m/s 721 mmHg 86%
    07:00 +5°C° 0 mm 1 m/s 721 mmHg 80%
    08:00 +6°C° 0 mm 0 m/s 722 mmHg 74%
    09:00 +8°C° 0 mm 0 m/s 722 mmHg 68%
    10:00 +9°C° 0 mm 0 m/s 722 mmHg 64%
    11:00 +11°C° 0 mm 1 m/s 722 mmHg 60%
    12:00 +13°C° 0 mm 1 m/s 722 mmHg 57%
    13:00 +13°C° 0 mm 1 m/s 722 mmHg 57%
    14:00 +13°C° 0 mm 1 m/s 722 mmHg 57%
    15:00 +12°C° 0 mm 1 m/s 722 mmHg 57%
    16:00 +10°C° 0 mm 0 m/s 722 mmHg 65%
    17:00 +8°C° 0 mm 0 m/s 722 mmHg 72%
    18:00 +6°C° 0 mm 0 m/s 722 mmHg 79%
    19:00 +6°C° 0 mm 0 m/s 722 mmHg 81%
    20:00 +5°C° 0 mm 0 m/s 723 mmHg 83%
    21:00 +5°C° 0 mm 0 m/s 723 mmHg 85%
    22:00 +5°C° 0 mm 0 m/s 723 mmHg 86%
    23:00 +4°C° 0 mm 0 m/s 723 mmHg 86%

    22 Février, Vendredi

    Heure Température Précipitation Vent Pression Humidité
    00:00 +4°C° 0 mm 0 m/s 723 mmHg 87%
    01:00 +4°C° 0 mm 0 m/s 723 mmHg 88%
    02:00 +5°C° 0 mm 1 m/s 723 mmHg 88%
    03:00 +4°C° 0 mm 1 m/s 723 mmHg 89%
    04:00 +4°C° 0 mm 1 m/s 723 mmHg 89%
    05:00 +4°C° 0 mm 1 m/s 723 mmHg 90%
    06:00 +4°C° 0 mm 1 m/s 723 mmHg 90%
    07:00 +5°C° 0 mm 1 m/s 723 mmHg 85%
    08:00 +6°C° 0 mm 2 m/s 723 mmHg 79%
    09:00 +7°C° 0 mm 2 m/s 724 mmHg 74%
    10:00 +9°C° 0 mm 2 m/s 723 mmHg 69%
    11:00 +10°C° 0 mm 3 m/s 723 mmHg 65%
    12:00 +11°C° 0 mm 3 m/s 723 mmHg 60%
    13:00 +11°C° 0 mm 3 m/s 723 mmHg 61%
    14:00 +11°C° 0 mm 3 m/s 723 mmHg 62%
    15:00 +11°C° 0 mm 3 m/s 723 mmHg 63%
    16:00 +10°C° 0 mm 3 m/s 723 mmHg 72%
    17:00 +8°C° 0 mm 3 m/s 723 mmHg 80%
    18:00 +6°C° 0 mm 2 m/s 723 mmHg 88%
    19:00 +6°C° 0 mm 2 m/s 723 mmHg 90%
    20:00 +6°C° 0 mm 2 m/s 723 mmHg 92%
    21:00 +5°C° 0 mm 2 m/s 723 mmHg 93%
    22:00 +5°C° 0 mm 2 m/s 722 mmHg 93%
    23:00 +4°C° 0 mm 3 m/s 722 mmHg 93%
    Voir plus